Date String (YYYY-MM-DD hh:mm:ss) UTC,Instrument flags,absolute air pressure of the measurement (hPa),sample flow rate (lpm),inlet stack bypass flow (lpm),air temperature of the measurement (°C),ambient temperature measured by the external sensor (°C),aerosol sample conditioner tube jacket temperature (°C),OPC LED temperature (°C),internal box temperature (°C),relative humidity of the measurement (%),span deviation,mass concentration of particles derived from Lorenz-Mie calculation of OPC scattering (μg/m³),mass concentration of particles derived from Lorenz-Mie calculation of OPC scattering (μg/m³),mass concentration of particles derived from Lorenz-Mie calculation of OPC scattering (μg/m³)
DateTimeUTC,F1_M11,P_M11,Q1_M11,Q2_M11,T1_M11,T2_M11,T3_M11,T4_M11,T5_M11,U1_M11,ZSPAN_M11,X0_M11,X2_M11,X1_M11
2024-04-22 06:00:00,SystemResetWarning,0827.1,5.00,000.00,024.5,023.6,000.0,033.1,026.3,017.8,0000.0,0008.08,0003.87,0003.37
2024-04-22 06:01:00,SystemResetWarning,0827.1,5.00,000.00,024.5,023.7,000.0,033.1,026.3,017.8,0000.0,0008.11,0003.86,0003.39
2024-04-22 06:02:00,SystemResetWarning,0827.1,5.00,000.00,024.5,023.7,000.0,033.1,026.3,017.8,0000.0,0009.08,0003.89,0003.42
2024-04-22 06:03:00,SystemResetWarning,0827.2,5.00,000.00,024.5,023.7,000.0,033.1,026.3,017.8,0000.0,0009.19,0003.91,0003.46
2024-04-22 06:04:00,SystemResetWarning,0827.1,5.00,000.00,024.5,023.7,000.0,033.1,026.3,018.1,0000.0,0009.26,0003.93,0003.48
2024-04-22 06:05:00,SystemResetWarning,0827.1,5.00,000.00,024.5,023.7,000.0,033.1,026.4,018.3,0000.0,0009.22,0003.91,0003.48
2024-04-22 06:06:00,SystemResetWarning,0827.1,5.00,000.00,024.5,023.7,000.0,033.1,026.4,018.5,0000.0,0009.23,0003.90,0003.47
2024-04-22 06:07:00,SystemResetWarning,0827.1,5.00,000.00,024.5,023.7,000.0,033.1,026.4,018.7,0000.0,0009.21,0003.90,0003.47
2024-04-22 06:08:00,SystemResetWarning,0827.2,5.00,000.00,024.5,023.7,000.0,033.1,026.4,018.7,0000.0,0008.91,0003.91,0003.48
2024-04-22 06:09:00,SystemResetWarning,0827.1,5.00,000.00,024.5,023.7,000.0,033.1,026.4,017.6,0000.0,0009.63,0003.97,0003.53
2024-04-22 06:10:00,SystemResetWarning,0827.1,5.00,000.00,024.5,023.8,000.0,033.1,026.4,018.1,0000.0,0009.71,0004.00,0003.55
2024-04-22 06:11:00,SystemResetWarning,0827.1,5.00,000.00,024.5,023.8,000.0,033.1,026.4,018.7,0000.0,0009.69,0004.02,0003.57
2024-04-22 06:12:00,SystemResetWarning,0827.1,5.00,000.00,024.5,023.8,000.0,033.1,026.4,018.6,0000.0,0009.67,0004.06,0003.59
2024-04-22 06:13:00,SystemResetWarning,0827.1,5.00,000.00,024.5,023.8,000.0,033.1,026.4,018.6,0000.0,0008.79,0004.10,0003.62
2024-04-22 06:14:00,SystemResetWarning,0827.2,5.00,000.00,024.5,023.8,000.0,033.1,026.4,018.7,0000.0,0009.08,0004.10,0003.63
2024-04-22 06:15:00,SystemResetWarning,0827.2,4.99,000.00,024.6,023.8,000.0,033.1,026.4,018.7,0000.0,0010.17,0004.12,0003.63
2024-04-22 06:16:00,SystemResetWarning,0827.2,5.00,000.00,024.6,023.8,000.0,033.1,026.5,018.4,0000.0,0010.71,0004.13,0003.62
2024-04-22 06:17:00,SystemResetWarning,0827.2,5.00,000.00,024.6,023.8,000.0,033.1,026.4,018.1,0000.0,0011.17,0004.10,0003.60
2024-04-22 06:18:00,SystemResetWarning,0827.2,5.00,000.00,024.6,023.8,000.0,033.1,026.5,018.1,0000.0,0011.27,0004.08,0003.57
2024-04-22 06:19:00,SystemResetWarning,0827.2,5.00,000.00,024.6,023.9,000.0,033.1,026.5,018.1,0000.0,0011.25,0004.05,0003.54
2024-04-22 06:20:00,SystemResetWarning,0827.2,5.00,000.00,024.6,023.9,000.0,033.1,026.5,018.4,0000.0,0010.76,0004.00,0003.50
2024-04-22 06:21:00,SystemResetWarning,0827.1,5.00,000.00,024.6,023.9,000.0,033.1,026.5,018.9,0000.0,0009.83,0004.02,0003.51
2024-04-22 06:22:00,SystemResetWarning,0827.1,5.00,000.00,024.6,023.9,000.0,033.1,026.5,018.9,0000.0,0009.93,0004.04,0003.52
2024-04-22 06:23:00,SystemResetWarning,0827.1,5.00,000.00,024.6,023.9,000.0,033.1,026.5,018.5,0000.0,0009.94,0004.04,0003.53
2024-04-22 06:24:00,SystemResetWarning,0827.1,5.01,000.00,024.6,023.9,000.0,033.1,026.5,018.9,0000.0,0009.98,0004.02,0003.54
2024-04-22 06:25:00,SystemResetWarning,0827.1,5.00,000.00,024.6,023.9,000.0,033.1,026.5,019.7,0000.0,0009.93,0004.07,0003.58
2024-04-22 06:26:00,SystemResetWarning,0827.2,5.00,000.00,024.6,023.9,000.0,033.1,026.5,019.7,0000.0,0008.94,0004.16,0003.66
2024-04-22 06:27:00,SystemResetWarning,0827.2,5.00,000.00,024.6,023.9,000.0,033.1,026.5,019.4,0000.0,0008.54,0004.23,0003.73
2024-04-22 06:28:00,SystemResetWarning,0827.1,5.00,000.00,024.6,023.9,000.0,033.1,026.5,019.1,0000.0,0007.89,0004.31,0003.80
2024-04-22 06:29:00,SystemResetWarning,0827.1,5.00,000.00,024.6,023.9,000.0,033.1,026.5,018.7,0000.0,0007.74,0004.37,0003.86
2024-04-22 06:30:00,SystemResetWarning,0827.0,5.00,000.00,024.6,023.9,000.0,033.1,026.5,018.6,0000.0,0007.71,0004.41,0003.89
2024-04-22 06:31:00,SystemResetWarning,0827.1,5.00,000.00,024.6,023.9,000.0,033.1,026.5,018.6,0000.0,0007.65,0004.44,0003.93
2024-04-22 06:32:00,SystemResetWarning,0827.0,5.00,000.00,024.6,023.9,000.0,033.1,026.5,018.7,0000.0,0007.70,0004.50,0003.97
2024-04-22 06:33:00,SystemResetWarning,0827.0,4.99,000.00,024.6,023.9,000.0,033.2,026.5,018.7,0000.0,0007.66,0004.52,0003.99
2024-04-22 06:34:00,SystemResetWarning,0827.0,5.00,000.00,024.6,023.9,000.0,033.2,026.5,019.1,0000.0,0007.75,0004.56,0004.00
2024-04-22 06:35:00,SystemResetWarning,0827.0,5.00,000.00,024.7,023.9,000.0,033.2,026.5,019.2,0000.0,0008.49,0004.65,0004.02
2024-04-22 06:36:00,SystemResetWarning,0827.0,5.00,000.00,024.7,023.9,000.0,033.2,026.5,019.2,0000.0,0008.89,0004.70,0004.03
2024-04-22 06:37:00,SystemResetWarning,0827.0,5.00,000.00,024.7,023.9,000.0,033.2,026.5,019.3,0000.0,0008.82,0004.69,0004.03
2024-04-22 06:38:00,SystemResetWarning,0827.1,5.00,000.00,024.7,023.9,000.0,033.2,026.6,019.2,0000.0,0009.23,0004.69,0004.03
2024-04-22 06:39:00,SystemResetWarning,0827.0,5.00,000.00,024.7,023.9,000.0,033.2,026.5,019.1,0000.0,0009.58,0004.70,0004.02
2024-04-22 06:40:00,SystemResetWarning,0827.0,5.00,000.00,024.7,023.9,000.0,033.2,026.5,019.2,0000.0,0009.59,0004.70,0004.02
2024-04-22 06:41:00,SystemResetWarning,0827.0,4.99,000.00,024.7,023.9,000.0,033.2,026.6,019.2,0000.0,0009.99,0004.71,0004.03
2024-04-22 06:42:00,SystemResetWarning,0827.1,4.99,000.00,024.7,023.9,000.0,033.2,026.6,019.1,0000.0,0010.16,0004.75,0004.06
2024-04-22 06:43:00,SystemResetWarning,0827.0,4.99,000.00,024.7,023.9,000.0,033.2,026.5,019.0,0000.0,0010.54,0004.75,0004.07
2024-04-22 06:44:00,SystemResetWarning,0826.9,4.99,000.00,024.7,023.9,000.0,033.2,026.5,018.9,0000.0,0010.57,0004.77,0004.09
2024-04-22 06:45:00,SystemResetWarning,0827.0,5.00,000.00,024.7,023.9,000.0,033.2,026.5,017.6,0000.0,0011.04,0004.80,0004.10
2024-04-22 06:46:00,SystemResetWarning,0827.0,5.01,000.00,024.7,023.9,000.0,033.2,026.5,017.0,0000.0,0011.35,0004.69,0004.04
2024-04-22 06:47:00,SystemResetWarning,0827.0,5.01,000.00,024.7,023.9,000.0,033.2,026.5,016.7,0000.0,0010.63,0004.56,0003.96
2024-04-22 06:48:00,SystemResetWarning,0826.9,5.00,000.00,024.7,023.9,000.0,033.2,026.5,017.7,0000.0,0010.59,0004.47,0003.87
2024-04-22 06:49:00,SystemResetWarning,0827.0,5.00,000.00,024.7,023.9,000.0,033.2,026.5,018.0,0000.0,0011.07,0004.39,0003.81
2024-04-22 06:50:00,SystemResetWarning,0826.9,4.99,000.00,024.7,023.9,000.0,033.2,026.5,017.3,0000.0,0010.72,0004.36,0003.76
2024-04-22 06:51:00,SystemResetWarning,0826.9,5.00,000.00,024.6,023.9,000.0,033.2,026.5,016.5,0000.0,0010.70,0004.29,0003.68
2024-04-22 06:52:00,SystemResetWarning,0826.9,5.01,000.00,024.6,023.9,000.0,033.2,026.5,015.9,0000.0,0010.33,0004.21,0003.60
2024-04-22 06:53:00,SystemResetWarning,0826.9,5.00,000.00,024.6,023.8,000.0,033.2,026.5,016.2,0000.0,0010.10,0004.11,0003.50
2024-04-22 06:54:00,SystemResetWarning,0826.8,4.99,000.00,024.6,023.8,000.0,033.2,026.5,016.2,0000.0,0009.62,0004.00,0003.40
2024-04-22 06:55:00,SystemResetWarning,0826.7,4.99,000.00,024.6,023.8,000.0,033.2,026.5,016.2,0000.0,0009.53,0003.92,0003.31
2024-04-22 06:56:00,SystemResetWarning,0826.8,5.01,000.00,024.6,023.8,000.0,033.2,026.5,015.9,0000.0,0009.09,0003.80,0003.22
2024-04-22 06:57:00,SystemResetWarning,0826.8,5.01,000.00,024.6,023.8,000.0,033.2,026.5,018.4,0000.0,0008.18,0003.79,0003.19
2024-04-22 06:58:00,SystemResetWarning,0826.8,5.00,000.00,024.6,023.8,000.0,033.2,026.4,019.0,0000.0,0008.04,0003.87,0003.27
2024-04-22 06:59:00,SystemResetWarning,0826.8,4.99,000.00,024.6,023.8,000.0,033.2,026.4,019.7,0000.0,0008.09,0003.96,0003.35
